Tracking 19796 objects as of 19-Jul-2019
HD Live streaming from Space Station
objects crossing your sky now

NOAA 16 DEB

Track NOAA 16 DEB now!
10-day predictions


NORAD ID: 41259
Int'l Code: 2000-055FK
Perigee: 704.2 km
Apogee: 851.7 km
Inclination: 98.8 °
Period: 100.3 minutes
Semi major axis: 7148 km
RCS: Unknown
Launch date: September 21, 2000
Source: United States (US)
Launch site: AIR FORCE WESTERN TEST RANGE (AFWTR)

Note: This is SATELLITE DEBRIS
aabbcc
Your satellite tracking list
Your tracking list is empty




NASA's NSSDC Master Catalog

Two Line Element Set (TLE):
1 41259U 00055FK  19200.13216348  .00001734  00000-0  57361-3 0  9991
2 41259  98.8429 315.0253 0103202 134.6019 226.3645 14.36284837187464
Source of the keplerian elements: AFSPC